Hourly Weather Zolochev

Today, 3 August, Monday

Time Temperature Precipitation Wind Pressure Humidity
00:00 +15°C° 0 mm 2 mps 737 mmHg 79%
01:00 +14°C° 0 mm 2 mps 736 mmHg 79%
02:00 +14°C° 0 mm 2 mps 737 mmHg 79%
03:00 +14°C° 0 mm 2 mps 736 mmHg 80%
04:00 +13°C° 0 mm 3 mps 736 mmHg 80%
05:00 +13°C° 0 mm 3 mps 736 mmHg 81%
06:00 +14°C° 0 mm 3 mps 736 mmHg 79%
07:00 +17°C° 0 mm 4 mps 736 mmHg 77%
08:00 +17°C° 0 mm 5 mps 736 mmHg 75%
09:00 +19°C° 0 mm 5 mps 736 mmHg 73%
10:00 +21°C° 0 mm 6 mps 736 mmHg 71%
11:00 +22°C° 0 mm 6 mps 736 mmHg 69%
12:00 +23°C° 0 mm 6 mps 735 mmHg 68%
13:00 +23°C° 0 mm 6 mps 735 mmHg 67%
14:00 +25°C° 0 mm 5 mps 735 mmHg 65%
15:00 +25°C° 0 mm 5 mps 735 mmHg 66%
16:00 +25°C° 0 mm 5 mps 734 mmHg 68%
17:00 +25°C° 0 mm 5 mps 734 mmHg 69%
18:00 +23°C° 0 mm 4 mps 734 mmHg 73%
19:00 +21°C° 0 mm 4 mps 734 mmHg 78%
20:00 +20°C° 0 mm 4 mps 733 mmHg 82%
21:00 +20°C° 0 mm 4 mps 733 mmHg 81%
22:00 +19°C° 0 mm 4 mps 733 mmHg 80%
23:00 +19°C° 0 mm 4 mps 733 mmHg 79%

Tomorrow, 4 August, Tuesday

Time Temperature Precipitation Wind Pressure Humidity
00:00 +18°C° 0 mm 4 mps 733 mmHg 77%
01:00 +18°C° 0 mm 4 mps 733 mmHg 75%
02:00 +17°C° 0 mm 4 mps 733 mmHg 73%
03:00 +17°C° 0 mm 4 mps 733 mmHg 75%
04:00 +15°C° 0 mm 4 mps 732 mmHg 77%
05:00 +15°C° 0 mm 4 mps 732 mmHg 78%
06:00 +17°C° 0 mm 4 mps 732 mmHg 77%
07:00 +19°C° 0 mm 5 mps 732 mmHg 77%
08:00 +20°C° 0 mm 6 mps 733 mmHg 76%
09:00 +21°C° 0 mm 6 mps 733 mmHg 73%
10:00 +23°C° 0 mm 7 mps 733 mmHg 69%
11:00 +26°C° 0 mm 7 mps 733 mmHg 66%
12:00 +26°C° 0 mm 7 mps 733 mmHg 65%
13:00 +26°C° 0 mm 7 mps 733 mmHg 65%
14:00 +27°C° 0 mm 7 mps 733 mmHg 64%
15:00 +27°C° 0 mm 7 mps 733 mmHg 65%
16:00 +27°C° 0 mm 6 mps 733 mmHg 66%
17:00 +27°C° 0 mm 6 mps 733 mmHg 68%
18:00 +25°C° 0 mm 5 mps 733 mmHg 72%
19:00 +23°C° 0 mm 4 mps 733 mmHg 76%
20:00 +22°C° 0 mm 3 mps 733 mmHg 80%
21:00 +21°C° 0.1 mm 3 mps 734 mmHg 80%
22:00 +20°C° 0.1 mm 3 mps 734 mmHg 80%
23:00 +20°C° 0.1 mm 3 mps 734 mmHg 80%

Day after tomorrow, 5 August, Wednesday

Time Temperature Precipitation Wind Pressure Humidity
00:00 +19°C° 0.1 mm 3 mps 734 mmHg 79%
01:00 +19°C° 0.1 mm 2 mps 735 mmHg 77%
02:00 +18°C° 0.1 mm 2 mps 735 mmHg 76%
03:00 +19°C° 0.3 mm 1 mps 735 mmHg 78%
04:00 +18°C° 0.3 mm 1 mps 735 mmHg 80%
05:00 +18°C° 0.3 mm 1 mps 736 mmHg 82%
06:00 +19°C° 0.2 mm 1 mps 736 mmHg 81%
07:00 +19°C° 0.2 mm 2 mps 737 mmHg 79%
08:00 +20°C° 0.2 mm 2 mps 737 mmHg 78%
09:00 +23°C° 0 mm 2 mps 737 mmHg 74%
10:00 +24°C° 0 mm 2 mps 738 mmHg 70%
11:00 +25°C° 0 mm 3 mps 738 mmHg 66%
12:00 +26°C° 0 mm 3 mps 738 mmHg 64%
13:00 +27°C° 0 mm 3 mps 738 mmHg 62%
14:00 +27°C° 0 mm 3 mps 739 mmHg 60%
15:00 +27°C° 0 mm 3 mps 739 mmHg 61%
16:00 +27°C° 0 mm 3 mps 739 mmHg 63%
17:00 +27°C° 0 mm 3 mps 739 mmHg 64%
18:00 +25°C° 0 mm 3 mps 739 mmHg 68%
19:00 +23°C° 0 mm 2 mps 739 mmHg 72%
20:00 +21°C° 0 mm 2 mps 739 mmHg 75%
21:00 +20°C° 0 mm 2 mps 739 mmHg 76%
22:00 +20°C° 0 mm 2 mps 739 mmHg 77%
23:00 +19°C° 0 mm 2 mps 740 mmHg 78%

6 August, Thursday

Time Temperature Precipitation Wind Pressure Humidity
00:00 +19°C° 0 mm 2 mps 740 mmHg 79%
01:00 +18°C° 0 mm 3 mps 740 mmHg 81%
02:00 +18°C° 0 mm 3 mps 740 mmHg 82%
03:00 +18°C° 0 mm 3 mps 740 mmHg 82%
04:00 +17°C° 0 mm 2 mps 740 mmHg 82%
05:00 +17°C° 0 mm 2 mps 740 mmHg 82%
06:00 +18°C° 0 mm 2 mps 741 mmHg 79%
07:00 +20°C° 0 mm 2 mps 741 mmHg 76%
08:00 +23°C° 0 mm 2 mps 742 mmHg 73%
09:00 +24°C° 0 mm 2 mps 742 mmHg 68%
10:00 +25°C° 0 mm 2 mps 742 mmHg 63%
11:00 +27°C° 0 mm 2 mps 742 mmHg 58%
12:00 +27°C° 0 mm 3 mps 742 mmHg 56%
13:00 +28°C° 0 mm 3 mps 742 mmHg 55%
14:00 +28°C° 0 mm 3 mps 742 mmHg 54%
15:00 +28°C° 0 mm 3 mps 742 mmHg 56%
16:00 +28°C° 0 mm 3 mps 742 mmHg 59%
17:00 +28°C° 0 mm 3 mps 742 mmHg 62%
18:00 +26°C° 0 mm 3 mps 742 mmHg 67%
19:00 +24°C° 0 mm 2 mps 742 mmHg 72%
20:00 +23°C° 0 mm 2 mps 742 mmHg 76%
21:00 +21°C° 0 mm 2 mps 742 mmHg 78%
22:00 +21°C° 0 mm 1 mps 742 mmHg 80%
23:00 +20°C° 0 mm 1 mps 742 mmHg 82%

7 August, Friday

Time Temperature Precipitation Wind Pressure Humidity
00:00 +20°C° 0 mm 1 mps 742 mmHg 84%
01:00 +20°C° 0 mm 1 mps 742 mmHg 85%
02:00 +19°C° 0 mm 1 mps 742 mmHg 86%
03:00 +19°C° 0 mm 1 mps 743 mmHg 87%
04:00 +19°C° 0 mm 1 mps 743 mmHg 88%
05:00 +19°C° 0 mm 1 mps 743 mmHg 89%
06:00 +20°C° 0 mm 1 mps 743 mmHg 86%
07:00 +21°C° 0 mm 2 mps 743 mmHg 82%
08:00 +23°C° 0 mm 2 mps 743 mmHg 79%
09:00 +25°C° 0.1 mm 2 mps 743 mmHg 73%
10:00 +26°C° 0.1 mm 3 mps 743 mmHg 68%
11:00 +27°C° 0.1 mm 3 mps 744 mmHg 63%
12:00 +28°C° 0.1 mm 3 mps 743 mmHg 60%
13:00 +28°C° 0.1 mm 3 mps 743 mmHg 58%
14:00 +29°C° 0.1 mm 3 mps 743 mmHg 56%
15:00 +28°C° 0.2 mm 3 mps 742 mmHg 60%
16:00 +28°C° 0.2 mm 3 mps 742 mmHg 64%
17:00 +27°C° 0.2 mm 4 mps 742 mmHg 69%
18:00 +26°C° 0.2 mm 3 mps 742 mmHg 76%
19:00 +24°C° 0.2 mm 3 mps 742 mmHg 82%
20:00 +21°C° 0.2 mm 3 mps 742 mmHg 89%
21:00 +21°C° 0 mm 3 mps 742 mmHg 90%
22:00 +20°C° 0 mm 3 mps 742 mmHg 91%
23:00 +19°C° 0 mm 3 mps 742 mmHg 91%

8 August, Saturday

Time Temperature Precipitation Wind Pressure Humidity
00:00 +18°C° 0 mm 3 mps 742 mmHg 90%
01:00 +17°C° 0 mm 3 mps 742 mmHg 89%
02:00 +17°C° 0 mm 3 mps 742 mmHg 88%
03:00 +16°C° 0 mm 3 mps 742 mmHg 89%
04:00 +16°C° 0 mm 2 mps 742 mmHg 90%
05:00 +15°C° 0 mm 2 mps 741 mmHg 92%
06:00 +16°C° 0 mm 2 mps 742 mmHg 89%
07:00 +18°C° 0 mm 3 mps 742 mmHg 86%
08:00 +19°C° 0 mm 3 mps 742 mmHg 84%
09:00 +20°C° 0 mm 3 mps 742 mmHg 78%
10:00 +22°C° 0 mm 3 mps 742 mmHg 72%
11:00 +23°C° 0 mm 4 mps 742 mmHg 66%
12:00 +25°C° 0.1 mm 3 mps 741 mmHg 65%
13:00 +25°C° 0.1 mm 3 mps 741 mmHg 64%
14:00 +26°C° 0.1 mm 3 mps 741 mmHg 63%
15:00 +25°C° 0.1 mm 3 mps 740 mmHg 65%
16:00 +25°C° 0.1 mm 3 mps 740 mmHg 67%
17:00 +25°C° 0.1 mm 3 mps 740 mmHg 68%
18:00 +24°C° 0.1 mm 3 mps 740 mmHg 74%
19:00 +21°C° 0.1 mm 3 mps 740 mmHg 79%
20:00 +20°C° 0.1 mm 2 mps 739 mmHg 85%
21:00 +19°C° 0 mm 2 mps 739 mmHg 86%
22:00 +18°C° 0 mm 2 mps 740 mmHg 87%
23:00 +18°C° 0 mm 2 mps 740 mmHg 88%
Show more